Location: Archemont
(49.1579°N, 1.7598°E)
Time: 13:15:32
(UTC+00:00)

Transit 2A - Pass Details

Date: 15 April 2024
Orbit: 594 x 958 km, 66.7° (Epoch: 27 May)

Event Time Altitude Azimuth Distance (km) Brightness Sun altitude
Rises 07:43:15 0° 210° (SSW) 2,833 8.8 25.4°
Reaches altitude 10° 07:45:26 10° 209° (SSW) 1,952 8.1 25.8°
Maximum altitude 07:49:47 78° 125° (SE) 651 6.3 26.5°
Drops below altitude 10° 07:54:30 10° 38° (NE) 2,110 8.6 27.2°
Sets 07:56:56 0° 37° (NE) 3,084 9.4 27.6°
